Radiation Dose at Monitoring Post of Fukushima Daini Nuclear Power Station
Date,Time,MP-1(microSv/h),MP-2(microSv/h),MP-3(microSv/h),MP-4(microSv/h),MP-5(microSv/h),MP-6(microSv/h),MP-7(microSv/h),Wind Direction,Wind Velocity(m/s),Rain
2017/05/15,00:00,0.357,0.217,0.370,0.343,0.319,0.180,0.154,north-northwest,6.9,No
2017/05/15,00:10,0.360,0.218,0.371,0.342,0.317,0.180,0.154,north-northwest,6.8,Yes
2017/05/15,00:20,0.359,0.218,0.372,0.343,0.319,0.180,0.153,north,6.7,Yes
2017/05/15,00:30,0.358,0.218,0.370,0.341,0.319,0.180,0.155,north-northwest,6.4,No
2017/05/15,00:40,0.360,0.217,0.372,0.343,0.316,0.180,0.154,north,6.2,No
2017/05/15,00:50,0.359,0.218,0.371,0.343,0.320,0.180,0.154,north,6.4,No
2017/05/15,01:00,0.359,0.218,0.372,0.343,0.319,0.180,0.154,north,5.7,No
2017/05/15,01:10,0.359,0.216,0.371,0.342,0.319,0.181,0.155,north,5.6,No
2017/05/15,01:20,0.360,0.217,0.371,0.342,0.318,0.179,0.154,north-northwest,6.9,No
2017/05/15,01:30,0.359,0.218,0.372,0.343,0.317,0.180,0.154,north-northwest,5.5,No
2017/05/15,01:40,0.358,0.217,0.372,0.341,0.319,0.180,0.154,north,5.6,No
2017/05/15,01:50,0.360,0.217,0.371,0.345,0.316,0.180,0.153,north-northwest,7.0,No
2017/05/15,02:00,0.358,0.217,0.373,0.341,0.319,0.179,0.153,north,6.6,No
2017/05/15,02:10,0.360,0.217,0.371,0.343,0.318,0.179,0.154,north-northwest,8.0,No
2017/05/15,02:20,0.358,0.217,0.372,0.342,0.318,0.180,0.154,north-northwest,7.3,No
2017/05/15,02:30,0.359,0.217,0.371,0.341,0.319,0.179,0.153,north-northwest,6.3,No
2017/05/15,02:40,0.361,0.217,0.371,0.345,0.317,0.181,0.153,north-northwest,6.5,No
2017/05/15,02:50,0.360,0.218,0.374,0.341,0.318,0.181,0.153,north-northwest,6.7,No
2017/05/15,03:00,0.361,0.217,0.371,0.343,0.317,0.180,0.154,north-northwest,6.7,No
2017/05/15,03:10,0.359,0.218,0.372,0.341,0.320,0.180,0.154,north,6.2,No
2017/05/15,03:20,0.361,0.218,0.372,0.344,0.319,0.181,0.154,north-northwest,5.8,No
2017/05/15,03:30,0.360,0.218,0.370,0.344,0.318,0.180,0.155,north-northwest,6.2,No
2017/05/15,03:40,0.360,0.218,0.374,0.343,0.319,0.180,0.154,north,5.9,No
2017/05/15,03:50,0.362,0.218,0.372,0.345,0.317,0.181,0.154,north,5.4,No
2017/05/15,04:00,0.359,0.217,0.373,0.342,0.321,0.180,0.154,north-northwest,5.9,No
2017/05/15,04:10,0.360,0.219,0.372,0.344,0.318,0.180,0.154,north-northwest,5.9,Yes
2017/05/15,04:20,0.361,0.219,0.373,0.344,0.319,0.180,0.155,north-northwest,5.7,Yes
2017/05/15,04:30,0.361,0.218,0.373,0.344,0.319,0.181,0.154,north,5.9,Yes
2017/05/15,04:40,0.363,0.219,0.372,0.342,0.319,0.181,0.154,north,5.8,Yes
2017/05/15,04:50,0.361,0.219,0.374,0.344,0.321,0.181,0.156,north,5.9,Yes
2017/05/15,05:00,0.363,0.218,0.372,0.346,0.317,0.182,0.155,north,6.1,No
2017/05/15,05:10,0.360,0.218,0.371,0.343,0.321,0.181,0.156,north,6.2,No
2017/05/15,05:20,0.361,0.218,0.374,0.345,0.318,0.181,0.154,north,5.4,No
2017/05/15,05:30,0.362,0.219,0.374,0.341,0.318,0.182,0.155,north,5.3,No
2017/05/15,05:40,0.361,0.217,0.374,0.343,0.320,0.181,0.154,north,5.2,Yes
2017/05/15,05:50,0.362,0.217,0.372,0.343,0.319,0.180,0.155,north,5.9,No
2017/05/15,06:00,0.360,0.218,0.372,0.343,0.321,0.181,0.154,north-northwest,5.8,No
2017/05/15,06:10,0.361,0.219,0.372,0.343,0.317,0.180,0.154,north-northwest,5.9,Yes
2017/05/15,06:20,0.359,0.218,0.371,0.342,0.319,0.180,0.154,north-northwest,5.4,Yes
2017/05/15,06:30,0.360,0.218,0.373,0.345,0.318,0.180,0.154,north-northwest,5.5,No
2017/05/15,06:40,0.361,0.218,0.372,0.342,0.318,0.180,0.154,north-northwest,5.7,Yes
2017/05/15,06:50,0.360,0.218,0.373,0.345,0.320,0.180,0.155,north-northwest,5.8,Yes
2017/05/15,07:00,0.363,0.219,0.375,0.343,0.318,0.181,0.155,north-northwest,5.9,Yes
2017/05/15,07:10,0.359,0.219,0.371,0.342,0.320,0.181,0.155,north-northwest,5.1,No
2017/05/15,07:20,0.362,0.219,0.372,0.342,0.318,0.181,0.154,north-northwest,5.7,No
2017/05/15,07:30,0.359,0.218,0.373,0.342,0.319,0.181,0.154,north-northwest,5.1,No
2017/05/15,07:40,0.360,0.218,0.373,0.343,0.318,0.180,0.154,north-northwest,4.5,No
2017/05/15,07:50,0.361,0.217,0.372,0.342,0.319,0.181,0.155,north,3.9,No
2017/05/15,08:00,0.361,0.218,0.371,0.343,0.318,0.181,0.155,north,3.5,No
2017/05/15,08:10,0.362,0.217,0.375,0.342,0.318,0.181,0.155,north-northwest,3.3,Yes
2017/05/15,08:20,0.360,0.218,0.372,0.344,0.319,0.180,0.155,north,3.6,Yes
2017/05/15,08:30,0.364,0.218,0.375,0.343,0.318,0.181,0.154,north,3.3,Yes
2017/05/15,08:40,0.360,0.218,0.373,0.345,0.320,0.181,0.154,north,3.4,Yes
2017/05/15,08:50,0.364,0.220,0.374,0.343,0.318,0.183,0.154,north,3.1,No
2017/05/15,09:00,0.360,0.217,0.370,0.345,0.321,0.181,0.155,north,3.6,No
2017/05/15,09:10,0.362,0.219,0.374,0.343,0.318,0.181,0.154,north,3.0,No
2017/05/15,09:20,0.361,0.218,0.372,0.345,0.320,0.181,0.155,north-northwest,3.2,No
2017/05/15,09:30,0.362,0.219,0.374,0.341,0.318,0.182,0.153,north,2.1,No
2017/05/15,09:40,0.361,0.218,0.372,0.346,0.322,0.180,0.152,north,1.9,No
2017/05/15,09:50,0.361,0.219,0.374,0.342,0.317,0.180,0.145,north,2.2,No
2017/05/15,10:00,0.360,0.218,0.372,0.345,0.320,0.181,0.145,north,2.3,No
2017/05/15,10:10,0.362,0.218,0.375,0.343,0.316,0.181,0.139,north,2.2,Yes
2017/05/15,10:20,0.361,0.219,0.373,0.345,0.321,0.182,0.143,north,1.7,Yes
2017/05/15,10:30,0.362,0.218,0.373,0.343,0.317,0.182,0.144,north-northeast,1.3,No
2017/05/15,10:40,0.361,0.219,0.373,0.347,0.319,0.182,0.142,north,1.3,No
2017/05/15,10:50,0.361,0.218,0.375,0.342,0.319,0.182,0.144,north,1.6,No
2017/05/15,11:00,0.362,0.219,0.374,0.345,0.319,0.181,0.144,north-northeast,1.4,No
2017/05/15,11:10,0.362,0.221,0.375,0.343,0.319,0.182,0.144,north-northeast,1.7,No
2017/05/15,11:20,0.362,0.218,0.372,0.345,0.316,0.180,0.143,north-northeast,1.9,No
2017/05/15,11:30,0.361,0.218,0.374,0.344,0.319,0.182,0.143,north-northeast,2.2,No
2017/05/15,11:40,0.360,0.217,0.371,0.343,0.317,0.180,0.144,northeast,1.7,No
2017/05/15,11:50,0.363,0.219,0.374,0.345,0.319,0.181,0.145,northeast,2.2,No
2017/05/15,12:00,0.358,0.219,0.373,0.343,0.319,0.182,0.143,northeast,2.3,No
2017/05/15,12:10,0.365,0.217,0.370,0.343,0.317,0.180,0.145,northeast,1.9,No
2017/05/15,12:20,0.359,0.219,0.372,0.345,0.319,0.182,0.145,northeast,2.5,No
2017/05/15,12:30,0.363,0.217,0.369,0.341,0.319,0.182,0.144,northeast,2.1,No
2017/05/15,12:40,0.360,0.218,0.374,0.347,0.318,0.181,0.144,northeast,2.5,No
2017/05/15,12:50,0.361,0.218,0.372,0.343,0.320,0.181,0.145,northeast,2.7,No
2017/05/15,13:00,0.362,0.219,0.373,0.343,0.318,0.180,0.145,northeast,2.4,No
2017/05/15,13:10,0.362,0.218,0.374,0.345,0.319,0.182,0.144,northeast,2.5,No
2017/05/15,13:20,0.363,0.218,0.372,0.342,0.321,0.182,0.145,northeast,3.1,No
2017/05/15,13:30,0.361,0.219,0.375,0.346,0.318,0.182,0.144,northeast,2.5,No
2017/05/15,13:40,0.364,0.221,0.373,0.343,0.319,0.183,0.144,northeast,2.5,No
2017/05/15,13:50,0.362,0.218,0.376,0.346,0.318,0.181,0.144,northeast,1.7,No
2017/05/15,14:00,0.363,0.219,0.373,0.346,0.323,0.183,0.144,northeast,1.9,No
2017/05/15,14:10,0.363,0.218,0.375,0.344,0.320,0.182,0.144,northeast,1.9,No
2017/05/15,14:20,0.364,0.220,0.374,0.347,0.319,0.181,0.144,northeast,1.9,No
2017/05/15,14:30,0.361,0.218,0.374,0.346,0.319,0.182,0.145,east-northeast,1.6,No
2017/05/15,14:40,0.363,0.220,0.373,0.348,0.318,0.182,0.145,east-northeast,1.7,No
2017/05/15,14:50,0.361,0.219,0.374,0.343,0.323,0.181,0.145,east-northeast,1.4,No
2017/05/15,15:00,0.364,0.219,0.375,0.347,0.319,0.182,0.144,east-northeast,1.3,No
2017/05/15,15:10,0.361,0.218,0.371,0.346,0.322,0.182,0.144,east,0.9,No
2017/05/15,15:20,0.364,0.220,0.375,0.345,0.319,0.182,0.145,east-southeast,1.4,No
2017/05/15,15:30,0.363,0.219,0.373,0.345,0.321,0.182,0.145,east,1.3,No
2017/05/15,15:40,0.363,0.219,0.377,0.345,0.322,0.181,0.145,northeast,1.4,No
2017/05/15,15:50,0.363,0.219,0.374,0.347,0.319,0.181,0.145,northeast,1.1,No
2017/05/15,16:00,0.365,0.218,0.378,0.347,0.321,0.182,0.144,northeast,1.2,No
2017/05/15,16:10,0.363,0.221,0.375,0.350,0.319,0.182,0.144,east-northeast,1.1,No
2017/05/15,16:20,0.361,0.218,0.376,0.345,0.321,0.182,0.144,east-northeast,1.7,No
2017/05/15,16:30,0.362,0.220,0.373,0.348,0.320,0.182,0.146,north-northeast,2.3,No
2017/05/15,16:40,0.364,0.219,0.376,0.345,0.321,0.181,0.145,north-northeast,2.0,No
2017/05/15,16:50,0.363,0.220,0.374,0.348,0.320,0.183,0.144,north-northeast,1.4,No
2017/05/15,17:00,0.363,0.220,0.376,0.346,0.322,0.183,0.145,north-northeast,1.9,No
2017/05/15,17:10,0.363,0.220,0.374,0.348,0.319,0.182,0.145,north-northeast,1.9,No
2017/05/15,17:20,0.363,0.220,0.377,0.346,0.322,0.182,0.145,north-northeast,1.6,Yes
2017/05/15,17:30,0.364,0.219,0.374,0.348,0.318,0.184,0.145,north-northeast,1.4,Yes
2017/05/15,17:40,0.363,0.219,0.377,0.346,0.321,0.182,0.144,north,1.4,Yes
2017/05/15,17:50,0.365,0.219,0.376,0.348,0.320,0.182,0.145,north,1.1,Yes
2017/05/15,18:00,0.362,0.220,0.375,0.346,0.322,0.183,0.145,north-northeast,1.4,No
2017/05/15,18:10,0.364,0.221,0.375,0.348,0.321,0.183,0.144,north-northeast,1.6,No
2017/05/15,18:20,0.362,0.219,0.376,0.347,0.322,0.183,0.145,north-northeast,1.9,No
2017/05/15,18:30,0.365,0.220,0.376,0.347,0.320,0.182,0.145,north-northeast,2.5,No
2017/05/15,18:40,0.361,0.220,0.374,0.346,0.321,0.182,0.145,north-northeast,4.2,No
2017/05/15,18:50,0.365,0.219,0.377,0.348,0.320,0.183,0.145,north,4.5,No
2017/05/15,19:00,0.365,0.220,0.375,0.347,0.318,0.183,0.144,north,3.8,No
2017/05/15,19:10,0.364,0.219,0.375,0.346,0.322,0.182,0.146,north,3.9,No
2017/05/15,19:20,0.364,0.220,0.374,0.348,0.318,0.183,0.145,north,3.1,No
2017/05/15,19:30,0.361,0.220,0.377,0.346,0.322,0.182,0.145,north,2.8,Yes
2017/05/15,19:40,0.365,0.219,0.375,0.348,0.320,0.183,0.145,north,4.3,Yes
2017/05/15,19:50,0.363,0.221,0.376,0.345,0.322,0.183,0.146,north-northeast,4.0,No
2017/05/15,20:00,0.365,0.220,0.376,0.349,0.320,0.183,0.144,north,5.0,No
2017/05/15,20:10,0.363,0.220,0.375,0.345,0.321,0.183,0.145,north,5.9,Yes
2017/05/15,20:20,0.366,0.221,0.377,0.348,0.322,0.182,0.146,north-northwest,5.4,Yes
2017/05/15,20:30,0.362,0.220,0.374,0.347,0.320,0.183,0.145,north,4.7,No
2017/05/15,20:40,0.366,0.220,0.378,0.350,0.321,0.182,0.146,north,4.6,No
2017/05/15,20:50,0.364,0.220,0.374,0.347,0.320,0.184,0.145,north,5.3,No
2017/05/15,21:00,0.365,0.220,0.378,0.348,0.322,0.183,0.146,north,5.1,No
2017/05/15,21:10,0.364,0.221,0.374,0.346,0.320,0.183,0.145,north,2.2,No
2017/05/15,21:20,0.364,0.220,0.376,0.346,0.321,0.182,0.146,north-northwest,2.7,No
2017/05/15,21:30,0.365,0.220,0.375,0.347,0.319,0.183,0.145,north-northwest,2.8,No
2017/05/15,21:40,0.364,0.220,0.374,0.346,0.322,0.182,0.145,north,2.3,No
2017/05/15,21:50,0.365,0.219,0.375,0.348,0.321,0.182,0.145,north,2.1,No
2017/05/15,22:00,0.361,0.220,0.375,0.346,0.320,0.183,0.144,north,1.8,No
2017/05/15,22:10,0.366,0.219,0.377,0.348,0.320,0.182,0.145,north-northeast,1.2,No
2017/05/15,22:20,0.363,0.222,0.375,0.346,0.320,0.183,0.145,north,0.8,No
2017/05/15,22:30,0.365,0.220,0.377,0.347,0.322,0.183,0.146,north,1.3,No
2017/05/15,22:40,0.363,0.220,0.374,0.346,0.319,0.182,0.145,north-northwest,1.2,No
2017/05/15,22:50,0.363,0.221,0.376,0.348,0.322,0.182,0.144,west,0.8,No
2017/05/15,23:00,0.364,0.219,0.374,0.346,0.317,0.182,0.145,north,0.5,No
2017/05/15,23:10,0.363,0.220,0.376,0.348,0.322,0.183,0.145,-,CALM,No
2017/05/15,23:20,0.365,0.221,0.375,0.347,0.321,0.183,0.146,north-northwest,0.8,No
2017/05/15,23:30,0.363,0.219,0.376,0.347,0.321,0.182,0.145,northwest,1.4,No
2017/05/15,23:40,0.365,0.220,0.377,0.348,0.320,0.183,0.145,northwest,1.9,No
2017/05/15,23:50,0.363,0.221,0.374,0.346,0.321,0.183,0.145,west-northwest,1.4,No
